QPF
0.01 0.02 0.02 0.02 0.04 0.05 0.07 0.08 0.08 0.07 0.06 0.05 0.06 0.06 0.06 0.10 0.13 0.14 0.13 0.09 0.05 0.04 0.03 0.03 0.02 0.02 0.03 0.05 0.06 0.05 0.03 0.02 0.02 0.02 0.02 0.02 0.02 0.02 0.01 0.01 0.01 0.00 0.01
0.02 0.02 0.03 0.03 0.04 0.06 0.07 0.08 0.08 0.07 0.06 0.05 0.06 0.09 0.06 0.07 0.12 0.13 0.11 0.06 0.03 0.03 0.04 0.04 0.03 0.03 0.04 0.05 0.06 0.06 0.05 0.04 0.03 0.03 0.03 0.03 0.02 0.02 0.01 0.01 0.01 0.01 0.00
0.02 0.02 0.03 0.04 0.05 0.06 0.06 0.07 0.08 0.07 0.06 0.05 0.04 0.09 0.14 0.09 0.12 0.13 0.10 0.06 0.03 0.02 0.03 0.03 0.03 0.03 0.04 0.05 0.07 0.06 0.04 0.04 0.03 0.03 0.03 0.03 0.02 0.02 0.01 0.01 0.01 0.01 0.01
0.02 0.02 0.03 0.03 0.04 0.04 0.05 0.05 0.06 0.07 0.07 0.05 0.04 0.05 0.16 0.19 0.13 0.11 0.09 0.06 0.03 0.02 0.02 0.03 0.03 0.03 0.04 0.04 0.04 0.06 0.07 0.06 0.05 0.05 0.04 0.03 0.02 0.02 0.02 0.01 0.01 0.01 0.01
0.02 0.02 0.02 0.02 0.02 0.03 0.03 0.03 0.04 0.05 0.07 0.06 0.05 0.05 0.09 0.20 0.21 0.13 0.09 0.07 0.05 0.04 0.03 0.02 0.03 0.03 0.03 0.04 0.04 0.04 0.04 0.05 0.06 0.06 0.06 0.04 0.03 0.02 0.01 0.01 0.01 0.01 0.01
0.02 0.02 0.02 0.01 0.02 0.02 0.03 0.03 0.03 0.04 0.05 0.05 0.04 0.04 0.07 0.15 0.21 0.18 0.12 0.09 0.07 0.06 0.05 0.03 0.03 0.03 0.02 0.03 0.04 0.05 0.04 0.04 0.04 0.04 0.05 0.05 0.04 0.03 0.02 0.01 0.01 0.01 0.02
0.02 0.02 0.02 0.01 0.02 0.02 0.02 0.02 0.03 0.04 0.04 0.04 0.03 0.04 0.06 0.10 0.13 0.16 0.15 0.11 0.08 0.06 0.06 0.05 0.04 0.03 0.03 0.03 0.03 0.04 0.05 0.04 0.04 0.04 0.04 0.04 0.03 0.03 0.03 0.02 0.02 0.02 0.02
0.02 0.02 0.02 0.02 0.01 0.01 0.01 0.02 0.02 0.04 0.05 0.03 0.02 0.03 0.05 0.08 0.09 0.10 0.11 0.13 0.12 0.08 0.06 0.05 0.04 0.03 0.03 0.03 0.03 0.03 0.03 0.04 0.04 0.04 0.04 0.03 0.03 0.02 0.02 0.02 0.02 0.02 0.02
0.02 0.02 0.03 0.02 0.02 0.01 0.01 0.02 0.02 0.03 0.04 0.03 0.03 0.03 0.04 0.06 0.08 0.10 0.08 0.08 0.13 0.13 0.11 0.08 0.06 0.05 0.03 0.03 0.03 0.03 0.03 0.03 0.04 0.04 0.03 0.03 0.03 0.02 0.02 0.02 0.02 0.02 0.02
0.02 0.02 0.02 0.03 0.02 0.01 0.01 0.02 0.02 0.02 0.02 0.02 0.02 0.03 0.05 0.06 0.08 0.10 0.09 0.08 0.09 0.12 0.14 0.13 0.10 0.07 0.06 0.04 0.04 0.04 0.04 0.04 0.04 0.04 0.04 0.04 0.04 0.03 0.03 0.03 0.02 0.02 0.02
0.02 0.02 0.02 0.02 0.03 0.02 0.02 0.02 0.02 0.02 0.02 0.02 0.02 0.02 0.04 0.06 0.08 0.09 0.09 0.09 0.08 0.08 0.11 0.12 0.12 0.10 0.08 0.07 0.05 0.04 0.04 0.04 0.04 0.04 0.04 0.04 0.04 0.04 0.04 0.04 0.03 0.03 0.03
0.01 0.02 0.02 0.02 0.03 0.03 0.02 0.02 0.03 0.03 0.03 0.02 0.03 0.03 0.03 0.04 0.06 0.06 0.07 0.07 0.07 0.07 0.08 0.10 0.12 0.13 0.11 0.09 0.06 0.04 0.03 0.03 0.03 0.03 0.04 0.04 0.04 0.04 0.04 0.04 0.04 0.04 0.03
0.01 0.01 0.01 0.02 0.02 0.02 0.02 0.02 0.02 0.03 0.03 0.03 0.02 0.03 0.04 0.04 0.04 0.04 0.04 0.05 0.05 0.06 0.07 0.08 0.11 0.12 0.12 0.12 0.08 0.05 0.04 0.03 0.03 0.03 0.03 0.03 0.03 0.04 0.03 0.03 0.03 0.04 0.04
0.01 0.01 0.01 0.01 0.02 0.02 0.01 0.01 0.01 0.02 0.02 0.03 0.03 0.03 0.03 0.03 0.04 0.04 0.03 0.03 0.03 0.04 0.04 0.05 0.07 0.10 0.13 0.13 0.12 0.10 0.07 0.06 0.05 0.04 0.03 0.03 0.03 0.03 0.03 0.02 0.02 0.03 0.04
0.00 0.01 0.01 0.01 0.02 0.02 0.02 0.01 0.01 0.01 0.02 0.02 0.03 0.03 0.03 0.03 0.02 0.03 0.02 0.02 0.02 0.03 0.04 0.05 0.05 0.07 0.09 0.12 0.13 0.13 0.12 0.10 0.09 0.07 0.05 0.04 0.04 0.04 0.04 0.03 0.03 0.03 0.03
0.00 0.00 0.01 0.01 0.02 0.02 0.02 0.02 0.02 0.01 0.02 0.02 0.02 0.02 0.02 0.03 0.03 0.02 0.01 0.01 0.02 0.02 0.03 0.05 0.05 0.06 0.07 0.09 0.10 0.11 0.12 0.12 0.11 0.08 0.06 0.05 0.05 0.05 0.05 0.05 0.04 0.04 0.03
0.01 0.00 0.00 0.01 0.01 0.01 0.02 0.02 0.02 0.02 0.02 0.02 0.02 0.02 0.02 0.02 0.02 0.02 0.02 0.01 0.01 0.01 0.02 0.03 0.04 0.06 0.06 0.07 0.08 0.09 0.10 0.10 0.10 0.09 0.07 0.06 0.05 0.05 0.05 0.06 0.06 0.06 0.05
0.01 0.01 0.01 0.01 0.01 0.01 0.01 0.01 0.02 0.02 0.02 0.02 0.02 0.02 0.02 0.02 0.02 0.02 0.02 0.02 0.01 0.01 0.01 0.02 0.03 0.04 0.05 0.06 0.06 0.07 0.08 0.09 0.08 0.09 0.09 0.07 0.06 0.05 0.05 0.06 0.06 0.06 0.06
0.01 0.01 0.01 0.01 0.01 0.01 0.01 0.01 0.02 0.02 0.02 0.03 0.02 0.02 0.02 0.02 0.02 0.02 0.02 0.02 0.02 0.02 0.02 0.02 0.03 0.03 0.04 0.05 0.05 0.05 0.06 0.07 0.07 0.07 0.09 0.09 0.08 0.07 0.07 0.06 0.06 0.05 0.06
0.01 0.01 0.01 0.01 0.01 0.01 0.01 0.01 0.01 0.02 0.02 0.02 0.03 0.03 0.02 0.02 0.02 0.02 0.02 0.02 0.02 0.03 0.03 0.03 0.03 0.04 0.04 0.04 0.05 0.05 0.05 0.05 0.05 0.06 0.07 0.08 0.08 0.08 0.07 0.06 0.05 0.05 0.05
0.01 0.01 0.01 0.01 0.01 0.01 0.01 0.01 0.01 0.01 0.02 0.02 0.03 0.03 0.04 0.03 0.03 0.03 0.03 0.03 0.03 0.03 0.03 0.04 0.04 0.04 0.04 0.05 0.05 0.05 0.05 0.05 0.04 0.04 0.05 0.05 0.06 0.07 0.07 0.07 0.06 0.05 0.05
0.01 0.01 0.01 0.01 0.01 0.01 0.01 0.01 0.01 0.02 0.02 0.02 0.03 0.03 0.04 0.05 0.04 0.04 0.04 0.04 0.04 0.04 0.04 0.04 0.05 0.06 0.06 0.06 0.05 0.05 0.05 0.05 0.04 0.04 0.04 0.04 0.05 0.05 0.05 0.06 0.06 0.06 0.07
0.01 0.01 0.01 0.01 0.01 0.01 0.02 0.02 0.02 0.02 0.02 0.02 0.02 0.03 0.04 0.05 0.05 0.04 0.04 0.04 0.04 0.04 0.04 0.04 0.04 0.05 0.06 0.06 0.07 0.06 0.06 0.06 0.06 0.05 0.06 0.06 0.05 0.04 0.04 0.04 0.05 0.06 0.06
0.01 0.01 0.01 0.01 0.01 0.01 0.01 0.02 0.02 0.02 0.02 0.02 0.02 0.03 0.04 0.04 0.05 0.05 0.05 0.04 0.04 0.04 0.03 0.03 0.03 0.03 0.04 0.05 0.05 0.05 0.05 0.06 0.06 0.06 0.07 0.07 0.06 0.05 0.05 0.05 0.04 0.05 0.05
0.01 0.01 0.01 0.01 0.01 0.01 0.01 0.02 0.02 0.02 0.03 0.03 0.03 0.03 0.03 0.03 0.04 0.05 0.05 0.05 0.04 0.04 0.04 0.03 0.03 0.03 0.03 0.04 0.04 0.04 0.04 0.04 0.05 0.05 0.05 0.05 0.05 0.06 0.05 0.04 0.04 0.04 0.04
0.01 0.01 0.01 0.01 0.01 0.01 0.01 0.02 0.02 0.03 0.03 0.03 0.03 0.03 0.03 0.04 0.04 0.04 0.05 0.06 0.06 0.06 0.06 0.05 0.04 0.04 0.04 0.04 0.04 0.05 0.05 0.05 0.05 0.05 0.04 0.03 0.03 0.04 0.04 0.03 0.03 0.03 0.03
MSLP
1008.98 1009.66 1010.35 1011.05 1011.75 1012.45 1013.15 1013.87 1014.61 1015.37 1016.15 1016.93 1017.70 1018.44 1019.12 1019.74 1020.28 1020.75 1021.18 1021.58 1021.96 1022.36 1022.79 1023.26 1023.77 1024.31 1024.87 1025.44 1026.00 1026.55 1027.08 1027.59 1028.08 1028.55 1029.00 1029.42 1029.80 1030.15 1030.44 1030.68 1030.85 1030.97 1031.03
1008.81 1009.46 1010.12 1010.78 1011.44 1012.10 1012.79 1013.50 1014.24 1015.02 1015.83 1016.64 1017.45 1018.22 1018.94 1019.60 1020.19 1020.72 1021.20 1021.64 1022.08 1022.51 1022.96 1023.43 1023.92 1024.42 1024.94 1025.46 1025.99 1026.51 1027.04 1027.56 1028.08 1028.60 1029.10 1029.59 1030.05 1030.47 1030.83 1031.13 1031.35 1031.51 1031.61
1008.58 1009.21 1009.84 1010.48 1011.13 1011.80 1012.49 1013.21 1013.98 1014.77 1015.59 1016.41 1017.22 1017.99 1018.72 1019.39 1020.00 1020.57 1021.09 1021.59 1022.07 1022.54 1023.02 1023.49 1023.96 1024.44 1024.91 1025.38 1025.86 1026.35 1026.86 1027.38 1027.93 1028.49 1029.05 1029.61 1030.14 1030.63 1031.06 1031.43 1031.72 1031.93 1032.07
1008.31 1008.92 1009.55 1010.19 1010.85 1011.54 1012.26 1013.02 1013.81 1014.62 1015.44 1016.25 1017.03 1017.78 1018.47 1019.12 1019.73 1020.31 1020.86 1021.40 1021.93 1022.45 1022.96 1023.45 1023.92 1024.37 1024.81 1025.24 1025.68 1026.14 1026.62 1027.14 1027.70 1028.29 1028.89 1029.50 1030.09 1030.64 1031.13 1031.56 1031.90 1032.17 1032.35
1008.04 1008.62 1009.24 1009.89 1010.58 1011.31 1012.08 1012.88 1013.71 1014.54 1015.35 1016.14 1016.88 1017.57 1018.22 1018.82 1019.40 1019.98 1020.55 1021.12 1021.70 1022.26 1022.81 1023.33 1023.82 1024.27 1024.69 1025.09 1025.50 1025.93 1026.39 1026.90 1027.46 1028.06 1028.68 1029.31 1029.94 1030.52 1031.05 1031.52 1031.91 1032.21 1032.44
1007.76 1008.30 1008.90 1009.55 1010.26 1011.03 1011.85 1012.70 1013.57 1014.42 1015.24 1016.00 1016.70 1017.34 1017.93 1018.49 1019.04 1019.60 1020.18 1020.78 1021.39 1022.01 1022.61 1023.17 1023.69 1024.15 1024.57 1024.97 1025.36 1025.77 1026.22 1026.72 1027.26 1027.85 1028.47 1029.11 1029.73 1030.32 1030.86 1031.34 1031.75 1032.08 1032.34
1007.50 1007.97 1008.50 1009.13 1009.83 1010.62 1011.47 1012.37 1013.27 1014.16 1014.99 1015.75 1016.43 1017.04 1017.60 1018.12 1018.65 1019.20 1019.78 1020.41 1021.07 1021.73 1022.38 1022.99 1023.54 1024.04 1024.48 1024.89 1025.28 1025.69 1026.13 1026.61 1027.13 1027.70 1028.30 1028.91 1029.50 1030.07 1030.60 1031.07 1031.48 1031.82 1032.11
1007.26 1007.61 1008.05 1008.60 1009.26 1010.03 1010.89 1011.81 1012.75 1013.67 1014.54 1015.32 1016.01 1016.63 1017.18 1017.70 1018.23 1018.78 1019.39 1020.05 1020.74 1021.45 1022.14 1022.80 1023.39 1023.93 1024.40 1024.83 1025.24 1025.65 1026.08 1026.55 1027.06 1027.60 1028.16 1028.73 1029.28 1029.81 1030.30 1030.75 1031.15 1031.50 1031.80
1007.08 1007.26 1007.55 1007.98 1008.55 1009.26 1010.09 1011.01 1011.97 1012.93 1013.84 1014.67 1015.41 1016.07 1016.66 1017.22 1017.77 1018.36 1019.00 1019.69 1020.41 1021.15 1021.88 1022.58 1023.21 1023.78 1024.28 1024.74 1025.18 1025.60 1026.04 1026.50 1027.00 1027.51 1028.03 1028.56 1029.07 1029.56 1030.01 1030.43 1030.82 1031.17 1031.49
1007.02 1007.01 1007.11 1007.37 1007.80 1008.41 1009.17 1010.05 1011.01 1011.99 1012.94 1013.84 1014.65 1015.38 1016.04 1016.66 1017.28 1017.91 1018.59 1019.31 1020.06 1020.83 1021.58 1022.30 1022.95 1023.55 1024.09 1024.58 1025.04 1025.48 1025.94 1026.41 1026.89 1027.38 1027.88 1028.38 1028.85 1029.30 1029.73 1030.14 1030.52 1030.88 1031.23
1007.20 1006.97 1006.87 1006.94 1007.20 1007.66 1008.31 1009.11 1010.03 1011.01 1011.99 1012.93 1013.80 1014.61 1015.35 1016.05 1016.73 1017.43 1018.14 1018.89 1019.66 1020.44 1021.19 1021.92 1022.59 1023.20 1023.76 1024.28 1024.77 1025.24 1025.72 1026.20 1026.69 1027.18 1027.66 1028.14 1028.59 1029.03 1029.45 1029.86 1030.25 1030.64 1031.02
1007.71 1007.29 1006.99 1006.86 1006.94 1007.23 1007.73 1008.42 1009.26 1010.18 1011.14 1012.09 1013.00 1013.86 1014.66 1015.42 1016.16 1016.90 1017.64 1018.41 1019.18 1019.95 1020.71 1021.43 1022.10 1022.73 1023.31 1023.85 1024.36 1024.87 1025.37 1025.87 1026.37 1026.86 1027.35 1027.82 1028.27 1028.71 1029.14 1029.57 1029.99 1030.41 1030.82
1008.64 1008.07 1007.60 1007.30 1007.19 1007.31 1007.64 1008.18 1008.88 1009.70 1010.58 1011.48 1012.37 1013.22 1014.04 1014.82 1015.58 1016.33 1017.09 1017.86 1018.62 1019.38 1020.13 1020.84 1021.51 1022.14 1022.74 1023.30 1023.84 1024.37 1024.90 1025.41 1025.93 1026.43 1026.92 1027.40 1027.86 1028.31 1028.76 1029.22 1029.67 1030.13 1030.59
1010.01 1009.34 1008.76 1008.32 1008.06 1008.01 1008.17 1008.52 1009.05 1009.70 1010.44 1011.22 1012.01 1012.79 1013.55 1014.30 1015.03 1015.77 1016.51 1017.26 1018.01 1018.75 1019.48 1020.18 1020.85 1021.49 1022.10 1022.69 1023.25 1023.80 1024.34 1024.88 1025.40 1025.90 1026.39 1026.87 1027.34 1027.81 1028.28 1028.75 1029.24 1029.74 1030.24
1011.74 1011.04 1010.41 1009.88 1009.51 1009.31 1009.30 1009.46 1009.78 1010.22 1010.75 1011.34 1011.96 1012.60 1013.25 1013.90 1014.56 1015.24 1015.94 1016.65 1017.37 1018.10 1018.81 1019.51 1020.18 1020.83 1021.46 1022.06 1022.64 1023.21 1023.76 1024.30 1024.82 1025.31 1025.80 1026.27 1026.73 1027.19 1027.67 1028.16 1028.67 1029.20 1029.73
1013.70 1013.02 1012.38 1011.83 1011.39 1011.08 1010.91 1010.88 1010.98 1011.18 1011.47 1011.82 1012.23 1012.67 1013.14 1013.66 1014.21 1014.80 1015.43 1016.09 1016.78 1017.48 1018.18 1018.87 1019.55 1020.21 1020.85 1021.47 1022.06 1022.63 1023.19 1023.71 1024.22 1024.70 1025.16 1025.60 1026.04 1026.49 1026.96 1027.45 1027.96 1028.50 1029.04
1015.66 1015.05 1014.46 1013.92 1013.45 1013.06 1012.77 1012.57 1012.46 1012.43 1012.47 1012.57 1012.74 1012.95 1013.24 1013.58 1014.00 1014.49 1015.03 1015.63 1016.27 1016.94 1017.62 1018.31 1018.99 1019.65 1020.29 1020.92 1021.51 1022.09 1022.63 1023.14 1023.62 1024.08 1024.50 1024.92 1025.33 1025.74 1026.18 1026.65 1027.15 1027.68 1028.22
1017.42 1016.88 1016.36 1015.87 1015.41 1014.99 1014.61 1014.28 1014.00 1013.76 1013.58 1013.45 1013.39 1013.39 1013.49 1013.67 1013.95 1014.32 1014.78 1015.30 1015.89 1016.52 1017.17 1017.83 1018.49 1019.14 1019.77 1020.39 1020.98 1021.54 1022.07 1022.57 1023.03 1023.46 1023.86 1024.24 1024.62 1025.00 1025.40 1025.84 1026.31 1026.81 1027.34
1018.78 1018.33 1017.89 1017.45 1017.02 1016.60 1016.18 1015.77 1015.37 1014.98 1014.62 1014.32 1014.07 1013.91 1013.84 1013.89 1014.04 1014.31 1014.68 1015.13 1015.64 1016.21 1016.80 1017.42 1018.03 1018.64 1019.24 1019.83 1020.40 1020.95 1021.47 1021.96 1022.42 1022.84 1023.23 1023.60 1023.96 1024.32 1024.70 1025.10 1025.54 1026.01 1026.51
1019.70 1019.31 1018.93 1018.55 1018.17 1017.76 1017.34 1016.89 1016.42 1015.95 1015.49 1015.07 1014.71 1014.43 1014.26 1014.20 1014.26 1014.44 1014.72 1015.09 1015.51 1015.99 1016.50 1017.03 1017.57 1018.11 1018.66 1019.20 1019.75 1020.28 1020.80 1021.30 1021.77 1022.22 1022.63 1023.02 1023.38 1023.74 1024.11 1024.50 1024.91 1025.36 1025.83
1020.18 1019.84 1019.51 1019.18 1018.83 1018.46 1018.05 1017.60 1017.12 1016.62 1016.12 1015.66 1015.25 1014.92 1014.70 1014.58 1014.58 1014.69 1014.88 1015.15 1015.48 1015.85 1016.25 1016.66 1017.09 1017.54 1018.01 1018.49 1019.00 1019.52 1020.05 1020.58 1021.10 1021.59 1022.06 1022.50 1022.91 1023.31 1023.69 1024.08 1024.49 1024.91 1025.37
1020.37 1020.04 1019.73 1019.43 1019.12 1018.78 1018.39 1017.97 1017.50 1017.02 1016.54 1016.08 1015.69 1015.36 1015.13 1014.99 1014.96 1015.01 1015.13 1015.31 1015.53 1015.77 1016.02 1016.30 1016.60 1016.94 1017.31 1017.72 1018.19 1018.70 1019.26 1019.83 1020.42 1020.99 1021.55 1022.07 1022.56 1023.02 1023.45 1023.87 1024.28 1024.71 1025.15
1020.41 1020.08 1019.78 1019.49 1019.19 1018.86 1018.50 1018.10 1017.67 1017.23 1016.79 1016.38 1016.03 1015.74 1015.54 1015.42 1015.37 1015.38 1015.44 1015.53 1015.63 1015.74 1015.86 1016.00 1016.16 1016.37 1016.64 1016.99 1017.42 1017.93 1018.51 1019.14 1019.81 1020.48 1021.14 1021.76 1022.35 1022.89 1023.38 1023.84 1024.28 1024.72 1025.16
1020.46 1020.12 1019.82 1019.52 1019.21 1018.89 1018.53 1018.15 1017.74 1017.34 1016.95 1016.60 1016.31 1016.08 1015.92 1015.82 1015.78 1015.78 1015.79 1015.81 1015.81 1015.81 1015.80 1015.81 1015.85 1015.95 1016.14 1016.42 1016.82 1017.33 1017.94 1018.62 1019.37 1020.13 1020.89 1021.61 1022.29 1022.91 1023.48 1023.99 1024.46 1024.91 1025.36
1020.61 1020.27 1019.95 1019.63 1019.31 1018.96 1018.59 1018.20 1017.81 1017.43 1017.08 1016.78 1016.55 1016.38 1016.27 1016.22 1016.20 1016.20 1016.19 1016.16 1016.10 1016.02 1015.92 1015.83 1015.78 1015.81 1015.93 1016.17 1016.54 1017.05 1017.67 1018.40 1019.20 1020.03 1020.86 1021.67 1022.42 1023.11 1023.73 1024.28 1024.78 1025.25 1025.70
1020.88 1020.55 1020.22 1019.88 1019.52 1019.13 1018.73 1018.32 1017.92 1017.55 1017.22 1016.97 1016.78 1016.66 1016.61 1016.61 1016.63 1016.65 1016.65 1016.62 1016.54 1016.42 1016.28 1016.15 1016.06 1016.05 1016.13 1016.35 1016.71 1017.21 1017.84 1018.58 1019.41 1020.27 1021.13 1021.97 1022.76 1023.48 1024.13 1024.71 1025.23 1025.71 1026.16
Thickness
5517 5519 5521 5523 5525 5528 5530 5531 5533 5536 5539 5541 5542 5543 5545 5547 5549 5551 5553 5555 5557 5558 5559 5559 5559 5560 5560 5560 5559 5558 5556 5554 5554 5554 5552 5551 5552 5553 5554 5556 5557 5558 5559
5507 5510 5511 5513 5515 5518 5520 5522 5524 5527 5529 5532 5534 5535 5537 5538 5540 5542 5543 5546 5548 5549 5550 5551 5551 5551 5551 5551 5550 5550 5548 5546 5546 5548 5545 5543 5543 5544 5545 5546 5547 5548 5549
5500 5501 5502 5504 5506 5508 5510 5513 5515 5518 5520 5522 5524 5526 5527 5528 5528 5531 5533 5536 5538 5540 5541 5541 5541 5542 5543 5542 5542 5543 5542 5540 5537 5539 5540 5539 5539 5534 5534 5535 5536 5537 5538
5492 5492 5494 5495 5498 5499 5501 5504 5506 5508 5510 5513 5515 5518 5519 5519 5520 5522 5524 5525 5528 5530 5531 5531 5532 5532 5533 5534 5535 5535 5535 5534 5532 5529 5529 5530 5531 5529 5526 5525 5526 5527 5528
5482 5484 5486 5487 5489 5489 5491 5494 5497 5500 5501 5504 5506 5508 5509 5510 5510 5511 5513 5515 5517 5519 5521 5521 5523 5523 5524 5524 5525 5526 5526 5527 5527 5524 5521 5519 5519 5520 5520 5519 5516 5517 5518
5473 5475 5477 5478 5479 5479 5482 5485 5488 5490 5492 5494 5495 5498 5499 5500 5501 5502 5503 5504 5506 5508 5510 5511 5513 5514 5515 5515 5515 5517 5518 5518 5518 5517 5516 5515 5513 5511 5511 5510 5509 5507 5508
5464 5465 5467 5469 5470 5471 5473 5475 5478 5480 5482 5484 5486 5487 5489 5491 5492 5493 5493 5495 5497 5498 5499 5500 5502 5504 5505 5505 5506 5507 5508 5509 5509 5509 5509 5508 5508 5506 5504 5502 5500 5498 5498
5454 5457 5458 5459 5460 5462 5464 5465 5468 5470 5471 5474 5476 5478 5479 5479 5481 5483 5484 5485 5487 5489 5490 5490 5492 5493 5494 5495 5496 5497 5498 5498 5499 5499 5499 5499 5499 5498 5497 5495 5492 5490 5488
5443 5444 5446 5448 5449 5451 5453 5455 5458 5460 5461 5464 5466 5467 5468 5469 5471 5473 5474 5475 5477 5478 5479 5480 5481 5483 5484 5485 5485 5487 5487 5488 5488 5489 5489 5489 5489 5488 5488 5488 5487 5485 5483
5431 5433 5435 5436 5438 5440 5442 5444 5446 5449 5451 5453 5455 5457 5458 5459 5460 5461 5463 5465 5466 5467 5468 5468 5470 5472 5473 5474 5475 5476 5476 5477 5478 5478 5478 5478 5478 5478 5478 5478 5478 5478 5477
5421 5422 5423 5425 5427 5429 5431 5433 5435 5437 5440 5442 5444 5446 5447 5448 5449 5451 5453 5454 5455 5456 5457 5458 5459 5461 5462 5462 5463 5465 5465 5466 5467 5468 5468 5467 5468 5467 5467 5467 5467 5466 5467
5411 5411 5412 5413 5415 5417 5420 5421 5423 5426 5428 5430 5432 5434 5436 5437 5438 5440 5441 5442 5444 5446 5447 5447 5448 5450 5451 5452 5453 5454 5455 5456 5456 5457 5457 5457 5456 5457 5457 5456 5456 5456 5457
5401 5401 5401 5402 5403 5404 5407 5408 5411 5414 5416 5418 5421 5423 5424 5426 5427 5428 5429 5431 5432 5434 5435 5436 5437 5439 5439 5441 5442 5443 5444 5445 5446 5446 5447 5447 5446 5446 5446 5446 5446 5446 5447
5390 5390 5390 5390 5392 5393 5394 5395 5398 5401 5404 5407 5409 5412 5414 5415 5416 5417 5418 5420 5421 5422 5423 5424 5426 5427 5429 5430 5431 5432 5433 5433 5434 5435 5436 5436 5437 5437 5436 5436 5436 5435 5435
5380 5380 5379 5379 5380 5381 5383 5384 5386 5389 5392 5394 5397 5400 5402 5404 5405 5406 5406 5407 5408 5410 5411 5412 5413 5415 5416 5418 5420 5421 5421 5421 5422 5423 5423 5424 5426 5427 5426 5426 5426 5426 5425
5370 5370 5369 5369 5370 5371 5372 5373 5375 5378 5380 5383 5386 5389 5391 5392 5393 5394 5394 5395 5396 5397 5398 5400 5401 5402 5404 5407 5409 5410 5410 5410 5410 5411 5411 5411 5412 5414 5415 5416 5416 5416 5415
5361 5360 5359 5359 5359 5360 5361 5363 5364 5366 5369 5372 5375 5377 5378 5379 5380 5381 5381 5382 5383 5384 5386 5387 5389 5391 5393 5395 5397 5399 5399 5399 5399 5399 5399 5399 5400 5400 5401 5402 5404 5403 5404
5352 5351 5349 5350 5350 5350 5351 5352 5354 5356 5358 5360 5362 5364 5365 5366 5367 5368 5369 5370 5370 5372 5374 5376 5377 5378 5381 5383 5385 5386 5386 5386 5386 5387 5388 5387 5387 5387 5388 5389 5389 5390 5390
5342 5341 5340 5340 5340 5340 5341 5342 5343 5345 5347 5349 5351 5352 5353 5355 5355 5355 5356 5357 5358 5360 5362 5363 5365 5366 5368 5370 5372 5373 5373 5373 5374 5374 5375 5375 5375 5376 5377 5377 5377 5376 5376
5333 5333 5332 5332 5332 5331 5331 5332 5333 5334 5336 5338 5339 5340 5342 5343 5344 5344 5345 5345 5347 5348 5349 5350 5352 5354 5355 5358 5360 5361 5361 5361 5362 5362 5362 5363 5364 5364 5364 5364 5364 5364 5364
5325 5324 5323 5323 5323 5322 5322 5322 5323 5325 5326 5327 5328 5329 5331 5332 5333 5333 5334 5334 5335 5336 5337 5338 5340 5341 5343 5345 5348 5349 5349 5350 5349 5350 5350 5350 5351 5352 5352 5353 5353 5353 5352
5315 5314 5314 5314 5313 5313 5313 5313 5313 5314 5315 5316 5317 5318 5319 5320 5321 5322 5322 5323 5323 5323 5324 5325 5326 5328 5330 5332 5335 5337 5338 5339 5338 5339 5338 5338 5338 5339 5340 5340 5341 5340 5339
5306 5305 5304 5304 5303 5303 5303 5302 5303 5303 5304 5305 5307 5308 5309 5309 5310 5310 5311 5312 5312 5312 5313 5314 5315 5316 5318 5320 5322 5324 5325 5326 5326 5326 5326 5326 5325 5325 5325 5325 5326 5325 5323
5296 5296 5295 5294 5294 5293 5293 5292 5293 5293 5294 5295 5296 5297 5298 5299 5299 5299 5301 5302 5302 5302 5303 5303 5305 5305 5306 5308 5309 5310 5311 5312 5312 5312 5311 5311 5310 5310 5309 5309 5308 5307 5307
5287 5286 5285 5285 5284 5284 5283 5283 5283 5284 5284 5285 5286 5286 5287 5287 5287 5288 5288 5290 5291 5293 5293 5293 5295 5295 5296 5297 5299 5299 5299 5299 5299 5297 5296 5294 5294 5293 5292 5291 5291 5291 5290
5278 5277 5276 5276 5275 5274 5274 5275 5275 5275 5275 5276 5276 5276 5276 5276 5277 5277 5276 5277 5278 5280 5282 5282 5283 5284 5285 5286 5286 5287 5287 5287 5286 5284 5282 5280 5279 5278 5277 5276 5275 5274 5273